HS5BOG-13 Weather Reports


time (UTC)temp
C
wind
direction
speed
KPH
gust
KPH
rain 1hr
cm
rain 24hr
cm
rain mn
cm
humidity
%
barometer
mb
20260506004533 28 0.0 0.0 0.00 0.00 0.00 10 992.6
20260506002522 28 0.0 0.0 0.00 0.00 0.00 10 992.6
20260506001516 27 0.0 0.0 0.00 0.00 0.00 10 992.6
20260506000510 27 0.0 0.0 0.00 0.00 0.00 10 992.6
20260505235505 27 0.0 0.0 0.00 0.00 0.00 10 992.5
20260505234505 27 0.0 0.0 0.00 0.00 0.00 10 992.4
20260505233456 27 0.0 0.0 0.00 0.00 0.00 10 992.2
20260505232450 27 0.0 0.0 0.00 0.00 0.00 10 992.0
20260505231443 27 0.0 0.0 0.00 0.00 0.00 10 991.9
20260505230439 27 0.0 0.0 0.00 0.00 0.00 10 992.0
20260505225431 27 0.0 0.0 0.00 0.00 0.00 10 991.9
20260505224426 27 0.0 0.0 0.00 0.00 0.00 99 991.9
20260505223420 27 0.0 0.0 0.00 0.00 0.00 10 991.7
20260505222414 27 0.0 0.0 0.00 0.00 0.00 99 991.5
20260505221409 27 0.0 0.0 0.00 0.00 0.00 98 991.5
20260505220403 27 0.0 0.0 0.00 0.00 0.00 98 991.3
20260505215338 27 0.0 0.0 0.00 0.00 0.00 98 991.0
20260505214332 27 0.0 0.0 0.00 0.00 0.00 99 990.9
20260505213326 27 0.0 0.0 0.00 0.00 0.00 98 990.8
20260505212321 28 0.0 0.0 0.00 0.00 0.00 99 990.9
20260505211316 28 0.0 0.0 0.00 0.00 0.00 98 991.0
20260505210310 28 0.0 0.0 0.00 0.00 0.00 98 990.9
20260505205305 28 0.0 0.0 0.00 0.00 0.00 98 991.1
20260505204259 28 0.0 0.0 0.00 0.00 0.00 97 991.1
20260505203253 28 0.0 0.0 0.00 0.00 0.00 97 991.1
20260505202247 28 0.0 0.0 0.00 0.00 0.00 96 991.2
20260505201242 28 0.0 0.0 0.00 0.00 0.00 95 991.1
20260505200236 28 0.0 0.0 0.00 0.00 0.00 94 991.1
20260505195231 28 0.0 0.0 0.00 0.00 0.00 93 990.9
20260505194225 28 0.0 0.0 0.00 0.00 0.00 91 990.9
20260505193220 28 0.0 0.0 0.00 0.00 0.00 91 990.9
20260505192214 28 0.0 0.0 0.00 0.00 0.00 90 990.9
20260505191209 28 0.0 0.0 0.00 0.00 0.00 90 991.0
20260505190203 28 0.0 0.0 0.00 0.00 0.00 90 991.1
20260505185157 28 0.0 0.0 0.00 0.00 0.00 91 991.2
20260505184152 28 0.0 0.0 0.00 0.00 0.00 91 991.4
20260505183146 28 0.0 0.0 0.00 0.00 0.00 91 991.4
20260505182140 28 0.0 0.0 0.00 0.00 0.00 90 991.5
20260505181135 29 0.0 0.0 0.00 0.00 0.00 89 991.7
20260505180129 29 0.0 0.0 0.00 0.00 0.00 87 991.7
20260505175123 29 0.0 0.0 0.00 0.00 0.00 86 991.9
20260505174118 29 0.0 0.0 0.00 0.00 0.00 86 992.0
20260505173112 29 0.0 0.0 0.00 0.00 0.00 86 992.2
20260505172106 29 0.0 0.0 0.00 0.00 0.00 86 992.3
20260505171101 29 0.0 0.0 0.00 0.00 0.00 86 992.3
20260505170055 29 0.0 0.0 0.00 0.00 0.00 86 992.3
20260505165050 29 0.0 0.0 0.00 0.00 0.00 85 992.3
20260505164044 29 0.0 0.0 0.00 0.00 0.00 86 992.4
20260505163039 29 0.0 0.0 0.00 0.00 0.00 89 992.6
20260505162033 29 0.0 0.0 0.00 0.00 0.00 88 992.9
20260505161027 29 0.0 0.0 0.00 0.00 0.00 87 992.8
20260505153005 29 0.0 0.0 0.00 0.00 0.00 83 992.4
20260505151959 29 0.0 0.0 0.00 0.00 0.00 82 992.5
20260505150954 29 0.0 0.0 0.00 0.00 0.00 82 992.5
20260505124834 30 0.0 0.0 0.00 0.00 0.00 82 990.1
20260505123828 30 0.0 0.0 0.00 0.00 0.00 85 990.0
20260505122822 30 0.0 0.0 0.00 0.00 0.00 83 989.8
20260505121817 30 0.0 0.0 0.00 0.00 0.00 83 989.6
20260505120811 30 0.0 0.0 0.00 0.00 0.00 82 989.6
20260505115805 30 0.0 0.0 0.00 0.00 0.00 82 989.6
20260505114800 30 0.0 0.0 0.00 0.00 0.00 80 989.5
20260505113754 30 0.0 0.0 0.00 0.00 0.00 75 989.4
20260505112748 31 0.0 0.0 0.00 0.00 0.00 76 989.3
20260505111743 30 0.0 0.0 0.00 0.00 0.00 75 989.3
20260505110737 30 0.0 0.0 0.00 0.00 0.00 71 989.3
20260505101709 31 0.0 0.0 0.00 0.00 0.00 71 989.5
20260505100704 31 0.0 0.0 0.00 0.00 0.00 71 989.4
20260505095658 30 0.0 0.0 0.00 0.00 0.00 69 989.4
20260505094652 30 0.0 0.0 0.00 0.00 0.00 70 989.3
20260505093647 30 0.0 0.0 0.00 0.00 0.00 71 989.2
20260505092641 30 0.0 0.0 0.00 0.00 0.00 70 989.2
20260505091635 30 0.0 0.0 0.00 0.00 0.00 69 989.4
20260505090630 30 0.0 0.0 0.00 0.00 0.00 69 989.6
20260505085624 30 0.0 0.0 0.00 0.00 0.00 69 989.7
20260505084619 30 0.0 0.0 0.00 0.00 0.00 70 989.9
20260505083613 30 0.0 0.0 0.00 0.00 0.00 73 990.1
20260505082609 30 0.0 0.0 0.00 0.00 0.00 73 990.4
20260505081602 30 0.0 0.0 0.00 0.00 0.00 75 990.6
20260505080556 30 0.0 0.0 0.00 0.00 0.00 76 990.8
20260505075551 30 0.0 0.0 0.00 0.00 0.00 76 991.0
20260505074545 30 0.0 0.0 0.00 0.00 0.00 77 991.3
20260505073539 30 0.0 0.0 0.00 0.00 0.00 77 991.5
20260505072534 30 0.0 0.0 0.00 0.00 0.00 77 991.7
20260505071528 30 0.0 0.0 0.00 0.00 0.00 76 992.0
20260505070523 30 0.0 0.0 0.00 0.00 0.00 78 992.0
20260505065517 29 0.0 0.0 0.00 0.00 0.00 81 992.3
20260505064511 29 0.0 0.0 0.00 0.00 0.00 82 992.5
20260505063505 29 0.0 0.0 0.00 0.00 0.00 82 992.8
20260505062500 29 0.0 0.0 0.00 0.00 0.00 82 993.0
20260505061454 29 0.0 0.0 0.00 0.00 0.00 83 993.4
20260505060449 29 0.0 0.0 0.00 0.00 0.00 83 993.7
20260505055443 29 0.0 0.0 0.00 0.00 0.00 84 994.0
20260505054438 28 0.0 0.0 0.00 0.00 0.00 85 994.3
20260505053432 28 0.0 0.0 0.00 0.00 0.00 85 994.5
20260505052426 28 0.0 0.0 0.00 0.00 0.00 85 994.6
20260505051421 28 0.0 0.0 0.00 0.00 0.00 84 995.0
20260505050415 28 0.0 0.0 0.00 0.00 0.00 86 995.4
20260505041347 28 0.0 0.0 0.00 0.00 0.00 92 995.9
20260505040341 28 0.0 0.0 0.00 0.00 0.00 93 996.0
20260505035336 27 0.0 0.0 0.00 0.00 0.00 96 996.2
20260505034330 27 0.0 0.0 0.00 0.00 0.00 96 996.2
20260505033324 27 0.0 0.0 0.00 0.00 0.00 96 996.2
20260505032319 27 0.0 0.0 0.00 0.00 0.00 96 996.3
20260505031313 27 0.0 0.0 0.00 0.00 0.00 95 996.3
20260505030308 27 0.0 0.0 0.00 0.00 0.00 95 996.5
20260505025304 27 0.0 0.0 0.00 0.00 0.00 95 996.8
20260505024256 27 0.0 0.0 0.00 0.00 0.00 95 996.7
20260505023251 27 0.0 0.0 0.00 0.00 0.00 93 996.8
20260505022245 27 0.0 0.0 0.00 0.00 0.00 93 996.8
20260505021240 27 0.0 0.0 0.00 0.00 0.00 92 996.8
20260505020234 27 0.0 0.0 0.00 0.00 0.00 92 996.8
20260505015228 27 0.0 0.0 0.00 0.00 0.00 94 996.8
20260505014223 27 0.0 0.0 0.00 0.00 0.00 95 996.7
20260505013217 27 0.0 0.0 0.00 0.00 0.00 95 996.6
20260505012212 27 0.0 0.0 0.00 0.00 0.00 95 996.5
20260505011206 27 0.0 0.0 0.00 0.00 0.00 94 996.3
20260505010201 27 0.0 0.0 0.00 0.00 0.00 95 996.2
20260505005155 27 0.0 0.0 0.00 0.00 0.00 94 995.9